Find Local Weather

World > North America > United States > Washington

Blaine, Washington Regional Weather

Lat: 48.99N, Lon: 122.76W
Wx Zone: WAZ503
Feedback
Expires:201811181900;;500650
ASUS46 KSEW 181810
RWRWA 

WASHINGTON REGIONAL WEATHER ROUNDUP
NATIONAL WEATHER SERVICE SEATTLE WA
1000 AM PST SUN NOV 18 2018

NOTE:"FAIR" INDICATES FEW OR NO CLOUDS BELOW 12,000 FEET WITH NO 
SIGNIFICANT WEATHER AND/OR OBSTRUCTIONS TO VISIBILITY.


WAZ001-503-506-510-514-515-181900-
NORTH INTERIOR
  
CITY           SKY/WX    TMP DP  RH WIND       PRES   REMARKS
BELLINGHAM     SUNNY     40  30  67 N5        30.23S                  
6HR MIN TEMP:  28; 6HR MAX TEMP:  40;                                

FRIDAY HARBOR  SUNNY     46  36  68 N9        30.23F                  
6HR MIN TEMP:  36; 6HR MAX TEMP:  46;                                

EASTSOUND      SUNNY     45  30  57 CALM      30.23S                  
PORT ANGELES   SUNNY     45  38  76 E6        30.22S                  
6HR MIN TEMP:  32; 6HR MAX TEMP:  45;                                

EDIZ HOOK      FAIR      45  38  78 E3        30.23F                  
6HR MIN TEMP:  40; 6HR MAX TEMP:  45;                                

PORT TOWNSEND  FAIR      41  39  93 CALM      30.22F                  
NAS WHIDBEY    PTSUNNY   46  35  65 E5        30.27S                  
6HR MIN TEMP:  33; 6HR MAX TEMP:  46;                                

ARLINGTON      SUNNY     37  33  85 CALM      30.23F                  
6HR MIN TEMP:  25; 6HR MAX TEMP:  40;                                

BURLINGTON     SUNNY     45  36  70 CALM      30.23F                  
$$
 

SKY/WX - Weather  TMP - Temperature  DP - Dew Point  RH - Relative Humidity
WIND - Wind Direction/Speed PRES - Barometric Pressure